This is the latest recevied weather packets stored in our database for station/object N4AN. If no packets are shown the sender has not sent any weather packets the latest 10 day(s).
| Time | Temp. | Humidity | Pressure | Rain* | Wind** | Luminosity | Snow |
|---|---|---|---|---|---|---|---|
| 1787526055 | 29.44° C | 72% | 1010.5 hPa | 0 mm | - | - | - |
| 1787525931 | 29.44° C | 72% | 1010.5 hPa | 0 mm | - | - | - |
| 1787525630 | 30° C | 71% | 1010.5 hPa | 0 mm | - | - | - |
| 1787525330 | 30.56° C | 70% | 1010.5 hPa | 0 mm | - | - | - |
| 1787525030 | 29.44° C | 71% | 1010.5 hPa | 0 mm | - | - | - |
| 1787524728 | 29.44° C | 73% | 1010.6 hPa | 0 mm | - | - | - |
| 1787524427 | 29.44° C | 74% | 1010.7 hPa | 0 mm | - | - | - |
| 1787524127 | 29.44° C | 75% | 1010.7 hPa | 0 mm | - | - | - |
| 1787523826 | 29.44° C | 74% | 1010.6 hPa | 0 mm | - | - | - |
| 1787523526 | 29.44° C | 74% | 1010.6 hPa | 0 mm | - | - | - |
| 1787523226 | 30° C | 73% | 1010.6 hPa | 0 mm | - | - | - |
| 1787522924 | 30.56° C | 74% | 1010.7 hPa | 0 mm | - | - | - |
| 1787522624 | 30° C | 74% | 1010.6 hPa | 0 mm | - | - | - |
| 1787522324 | 31.67° C | 71% | 1010.4 hPa | 0 mm | - | - | - |
| 1787521723 | 31.67° C | 72% | 1010.2 hPa | 0 mm | - | - | - |
| 1787521423 | 31.67° C | 72% | 1010 hPa | 0 mm | - | - | - |
| 1787521123 | 31.67° C | 72% | 1009.7 hPa | 0 mm | - | - | - |
| 1787520822 | 31.67° C | 72% | 1009.6 hPa | 0 mm | - | - | - |
| 1787520522 | 31.67° C | 72% | 1009.5 hPa | 0 mm | - | - | - |
| 1787520222 | 31.67° C | 72% | 1009.7 hPa | 0 mm | - | - | - |
| 1787519924 | 31.67° C | 73% | 1009.7 hPa | 0 mm | - | - | - |
| 1787519621 | 31.11° C | 72% | 1009.8 hPa | 0 mm | - | - | - |
| 1787519321 | 31.11° C | 73% | 1010 hPa | 0 mm | - | - | - |
| 1787519021 | 31.11° C | 73% | 1009.9 hPa | 0 mm | - | - | - |
| 1787518702 | 31.11° C | 73% | 1009.8 hPa | 0 mm | - | - | - |
* Rain latest hour (hover to see other rain measurements)
** Current wind speed in m/s (hover to see current wind gust speed)